Location: *
(46.3500°N, 10.9000°E)
Time: 23:52:37
(UTC+00:00)

Vanguard 2 - Pass Details

Date: 26 April 2021
Orbit: 552 x 2938 km, 32.9° (Epoch: 12 May)

Event Time Altitude Azimuth Distance (km) Brightness Sun altitude
Rises 14:02:37 0° 269° (W) 6,576 13.0 42.0°
Reaches altitude 10° 14:07:51 10° 262° (W) 5,316 12.8 41.2°
Maximum altitude 14:20:19 34° 206° (SSW) 2,909 11.6 39.3°
Drops below altitude 10° 14:28:47 10° 145° (SE) 3,587 10.9 37.9°
Sets 14:31:36 0° 136° (SE) 4,263 11.2 37.5°
